STARLINK-30108, 56299

Orbit data source: Space-Track

STARLINK-30108, 56299 is a payload satellite owned by SpaceX/Seattle (US) in LEO that was launched on Wed, 19 Apr 2023 UTC via an FALCON 9 launch vehicle from the Air Force Eastern Test Range (AFETR). Payload-class satellites include a variety of spacecraft equipped with specific instruments for various scientific and technological missions. These include communications satellites like Starlink; space stations such as the ISS; scientific satellites like the Hubble; Earth observation satellites from companies like Planet Labs, Umbra, and HawkEye 360; GPS; miniature CubeSats for education and research; and military/defense satellites.

Loading next visibility...
Identifier
56299, 2023-056P
Orbit
LEO
Last TLE update
14 hours ago
Origin
Manufacturer
SpaceX/Seattle
Mission
Operational Commercial Communications
Bus & Motor
STARLINK V2M, Unknown motor
Mass
730 kg wet, ~700 kg dry
Launch date (UTC)
2023-04-19 (2 years ago)
Launch vehicle
FALCON 9
Launch site
Air Force Eastern Test Range (AFETR)
Object type
Payload
Rocket body
Debris
Shape & HBR
Box + 2 Pan, 29 m
Radar Cross Section
33.884 m², Large (>1 m²)

Expand to show TLE details & history

TLE from 14 hours ago
0 STARLINK-30108
1 56299U 23056P   25130.46615431  .00002833  00000-0  22486-3 0  9999
2 56299  43.0055  45.4939 0001175 261.5896  98.4813 15.02506997114615
Epoch: 2025-05-10T11:11Z
Definitive object data (Epoch: 2025-05-10T11:11:15.732Z)
Latitude
-0.00003°
Longitude
9.17078°
Altitude
559.068 km
Speed
7.584 km/s
True Right ascension
03h 01m 58s
True Declination
0° 00' 00"
Sunlit
Object was in daylight at TLE epoch
Visualization TLE readout
Latitude
-42.68539°
Longitude
-94.42003°
Altitude
571.517 km
Speed
7.576 km/s
Apparent Right ascension
20h 44m 19s
Apparent Declination
-41° 33' 37"
Sunlit
Object is in partial shadow
Visualization observer readout
Local Sidereal Time
09:22:40
Azimuth
105.857° ESE
Elevation
-82.555°
Doppler factor
1
Orbital elements
Apogee altitude
561.907 km
Perigee altitude
560.276 km
Semi-major axis
6,939.229 km
Eccentricity
0.0001175
Inclination
43.0055°
RAAN
45.4939°
Arg. of periapsis
261.5896°
True anomaly
98.49462°
Mean anomaly
98.4813°
Eccentric anomaly
98.48796°
Mean motion
3.75471 °/min
BSTAR
0.00022486
Orbital period
95.88 mins
Loading maneuver chart data...
Loading SW <> Apogee altitude chart data...
Loading historical data...
Loading historical data...
Loading historical data...
Loading historical data...
Loading historical data...
Loading historical data...
Loading historical data...

STARLINK-30108 Visibility forecast

Observer location: undefined°, undefined°

Span
Click to sort rows by Start time (UTC) header in descending order
Start Az.
Max El. time (UTC)
Max El. Az.
Max El.
End time (UTC)
End Az.
7 mins2025-05-11 01:57:50.083Z289.495° WNW2025-05-11 02:00:50.083Z319.739° NNW43.215°2025-05-11 02:04:50.083Z102.228° ESE
5 mins2025-05-11 03:39:50.083Z257.078° W2025-05-11 03:41:50.083Z207.857° SW28.074°2025-05-11 03:44:50.083Z152.815° SSE
5 mins2025-05-11 20:53:50.083Z194.837° SSW2025-05-11 20:55:50.083Z153.059° SSE26.471°2025-05-11 20:58:50.083Z92.844° ESE
6 mins2025-05-11 22:33:50.083Z256.914° W2025-05-11 22:36:50.083Z45.406° ENE43.7°2025-05-11 22:39:50.083Z70.806° E
6 mins2025-05-12 00:14:50.083Z289.859° WNW2025-05-12 00:17:50.083Z27.995° NE38.314°2025-05-12 00:20:50.083Z78.038° E
|